User: anonymous   Login
Location: Unspecified
(0.0000°N, 0.0000°E)
Time: 09:15:00
(UTC+02:00)
Language:

Cosmos 1536 - Orbit

View from above orbital plane
View from above orbital plane
View from above satellite
View from above satellite

Ground track
Ground track

The orbit data is extracted from the following two-line orbital elements,

1 14699U 84013A   17083.81961345 +.00000106 +00000-0 +54294-5 0  9997
2 14699 082.5253 051.2031 0012343 351.5448 008.5569 15.04998950779243
Epoch (UTC): 24 March 2017 19:40:14
Eccentricity: 0.0012343
inclination: 82.5253°
perigee height: 543 km
apogee height: 560 km
right ascension of ascending node: 51.2031°
argument of perigee: 351.5448°
revolutions per day: 15.04998950
mean anomaly at epoch: 8.5569°
orbit number at epoch: 77924

The dashed part of the orbit path shows where the satellite is in the earth's shadow,  

DLR